Time,TemperatureF,DewpointF,PressureIn,WindDirection,WindDirectionDegrees,WindSpeedMPH,WindSpeedGustMPH,Humidity,HourlyPrecipIn,Conditions,Clouds,dailyrainin,SoftwareType,DateUTC
2013-05-04 00:00:00,34.2,32.4,29.93,NW,315,2.0,4.0,93,0.02,,,0.00,VWS V14.00,2013-05-04 05:00:00,
2013-05-04 00:05:00,34.0,32.2,29.93,NNW,338,3.0,7.0,93,0.02,,,0.00,VWS V14.00,2013-05-04 05:05:00,
2013-05-04 00:10:00,33.9,32.1,29.92,NNW,338,2.0,5.0,93,0.03,,,0.01,VWS V14.00,2013-05-04 05:10:00,
2013-05-04 00:15:00,34.0,32.2,29.92,NW,315,3.0,6.0,93,0.03,,,0.01,VWS V14.00,2013-05-04 05:15:00,
2013-05-04 00:20:00,34.1,32.3,29.92,NW,315,1.0,6.0,93,0.03,,,0.01,VWS V14.00,2013-05-04 05:20:00,
2013-05-04 00:25:00,34.2,32.4,29.92,WNW,292,2.0,5.0,93,0.02,,,0.01,VWS V14.00,2013-05-04 05:25:00,
2013-05-04 00:30:00,34.3,32.8,29.92,WNW,292,2.0,6.0,94,0.03,,,0.02,VWS V14.00,2013-05-04 05:30:00,
2013-05-04 00:35:00,34.3,32.8,29.91,WNW,292,1.0,3.0,94,0.03,,,0.02,VWS V14.00,2013-05-04 05:35:00,
2013-05-04 00:40:00,34.4,32.9,29.91,WSW,248,1.0,4.0,94,0.03,,,0.02,VWS V14.00,2013-05-04 05:40:00,
2013-05-04 00:45:00,34.4,32.9,29.92,West,270,1.0,3.0,94,0.02,,,0.02,VWS V14.00,2013-05-04 05:45:00,
2013-05-04 00:50:00,34.5,33.0,29.92,WNW,292,1.0,7.0,94,0.02,,,0.02,VWS V14.00,2013-05-04 05:50:00,
2013-05-04 00:55:00,34.5,33.0,29.91,WNW,292,0.0,1.0,94,0.02,,,0.02,VWS V14.00,2013-05-04 05:55:00,
2013-05-04 01:00:00,34.5,33.0,29.91,WNW,292,1.0,3.0,94,0.02,,,0.02,VWS V14.00,2013-05-04 06:00:00,
2013-05-04 01:05:00,34.5,33.0,29.91,WNW,292,2.0,4.0,94,0.02,,,0.02,VWS V14.00,2013-05-04 06:05:00,
2013-05-04 01:10:00,34.6,33.0,29.91,WNW,292,2.0,4.0,94,0.03,,,0.03,VWS V14.00,2013-05-04 06:10:00,
2013-05-04 01:15:00,34.6,33.0,29.91,WNW,292,1.0,3.0,94,0.02,,,0.03,VWS V14.00,2013-05-04 06:15:00,
2013-05-04 01:20:00,34.6,33.0,29.91,WNW,292,2.0,4.0,94,0.02,,,0.03,VWS V14.00,2013-05-04 06:20:00,
2013-05-04 01:25:00,34.6,33.0,29.91,WNW,292,1.0,4.0,94,0.02,,,0.03,VWS V14.00,2013-05-04 06:25:00,
2013-05-04 01:30:00,34.5,33.0,29.90,WNW,292,1.0,4.0,94,0.03,,,0.04,VWS V14.00,2013-05-04 06:30:00,
2013-05-04 01:35:00,34.6,33.0,29.90,WNW,292,3.0,6.0,94,0.02,,,0.04,VWS V14.00,2013-05-04 06:35:00,
2013-05-04 01:40:00,34.5,33.0,29.90,WNW,292,2.0,4.0,94,0.02,,,0.04,VWS V14.00,2013-05-04 06:40:00,
2013-05-04 01:45:00,34.6,33.0,29.89,WNW,292,3.0,6.0,94,0.02,,,0.04,VWS V14.00,2013-05-04 06:45:00,
2013-05-04 01:50:00,34.6,33.0,29.89,WNW,292,3.0,6.0,94,0.02,,,0.04,VWS V14.00,2013-05-04 06:50:00,
2013-05-04 01:55:00,34.6,33.0,29.89,WNW,292,4.0,9.0,94,0.02,,,0.04,VWS V14.00,2013-05-04 06:55:00,
2013-05-04 02:00:00,34.4,32.9,29.89,WNW,292,4.0,9.0,94,0.03,,,0.05,VWS V14.00,2013-05-04 07:00:00,
2013-05-04 02:05:00,34.2,32.4,29.88,WNW,292,3.0,6.0,93,0.03,,,0.05,VWS V14.00,2013-05-04 07:05:00,
2013-05-04 02:10:00,33.9,32.1,29.88,WNW,292,4.0,8.0,93,0.03,,,0.05,VWS V14.00,2013-05-04 07:10:00,
2013-05-04 02:15:00,33.7,31.9,29.88,WNW,292,4.0,7.0,93,0.02,,,0.05,VWS V14.00,2013-05-04 07:15:00,
2013-05-04 02:20:00,33.6,31.8,29.88,West,270,3.0,7.0,93,0.02,,,0.05,VWS V14.00,2013-05-04 07:20:00,
2013-05-04 02:25:00,33.6,31.8,29.88,WNW,292,2.0,5.0,93,0.02,,,0.05,VWS V14.00,2013-05-04 07:25:00,
2013-05-04 02:30:00,33.6,32.1,29.87,WNW,292,3.0,8.0,94,0.02,,,0.05,VWS V14.00,2013-05-04 07:30:00,
2013-05-04 02:35:00,33.7,32.2,29.87,WNW,292,3.0,7.0,94,0.01,,,0.05,VWS V14.00,2013-05-04 07:35:00,
2013-05-04 02:40:00,33.8,32.3,29.87,WNW,292,3.0,7.0,94,0.01,,,0.05,VWS V14.00,2013-05-04 07:40:00,
2013-05-04 02:45:00,33.9,32.4,29.87,West,270,3.0,7.0,94,0.02,,,0.06,VWS V14.00,2013-05-04 07:45:00,
2013-05-04 02:50:00,34.0,32.5,29.87,WNW,292,4.0,7.0,94,0.02,,,0.06,VWS V14.00,2013-05-04 07:50:00,
2013-05-04 02:55:00,34.1,32.6,29.87,WNW,292,2.0,6.0,94,0.02,,,0.06,VWS V14.00,2013-05-04 07:55:00,
2013-05-04 03:00:00,34.2,32.7,29.88,WNW,292,2.0,5.0,94,0.02,,,0.06,VWS V14.00,2013-05-04 08:00:00,
2013-05-04 03:05:00,34.3,32.8,29.88,WNW,292,1.0,4.0,94,0.01,,,0.06,VWS V14.00,2013-05-04 08:05:00,
2013-05-04 03:10:00,34.3,32.8,29.87,WNW,292,1.0,3.0,94,0.01,,,0.06,VWS V14.00,2013-05-04 08:10:00,
2013-05-04 03:15:00,34.4,32.9,29.87,WNW,292,2.0,4.0,94,0.01,,,0.06,VWS V14.00,2013-05-04 08:15:00,
2013-05-04 03:20:00,34.5,33.0,29.87,West,270,2.0,6.0,94,0.01,,,0.06,VWS V14.00,2013-05-04 08:20:00,
2013-05-04 03:25:00,34.5,33.0,29.87,West,270,3.0,5.0,94,0.01,,,0.06,VWS V14.00,2013-05-04 08:25:00,
2013-05-04 03:30:00,34.6,33.0,29.87,West,270,2.0,5.0,94,0.01,,,0.06,VWS V14.00,2013-05-04 08:30:00,
2013-05-04 03:35:00,34.6,33.0,29.87,West,270,3.0,5.0,94,0.01,,,0.06,VWS V14.00,2013-05-04 08:35:00,
2013-05-04 03:40:00,34.7,33.2,29.87,West,270,2.0,5.0,94,0.02,,,0.07,VWS V14.00,2013-05-04 08:40:00,
2013-05-04 03:45:00,34.7,33.2,29.87,WNW,292,1.0,4.0,94,0.02,,,0.07,VWS V14.00,2013-05-04 08:45:00,
2013-05-04 03:50:00,34.8,33.2,29.87,WNW,292,2.0,4.0,94,0.01,,,0.07,VWS V14.00,2013-05-04 08:50:00,
2013-05-04 03:55:00,34.8,33.2,29.87,West,270,2.0,5.0,94,0.01,,,0.07,VWS V14.00,2013-05-04 08:55:00,
2013-05-04 04:00:00,34.8,33.2,29.87,West,270,1.0,4.0,94,0.01,,,0.07,VWS V14.00,2013-05-04 09:00:00,
2013-05-04 04:05:00,34.8,33.2,29.87,West,270,1.0,4.0,94,0.01,,,0.07,VWS V14.00,2013-05-04 09:05:00,
2013-05-04 04:10:00,34.8,33.2,29.87,West,270,3.0,6.0,94,0.01,,,0.07,VWS V14.00,2013-05-04 09:10:00,
2013-05-04 04:15:00,34.8,33.2,29.87,West,270,3.0,7.0,94,0.02,,,0.08,VWS V14.00,2013-05-04 09:15:00,
2013-05-04 04:20:00,34.8,33.2,29.87,West,270,1.0,4.0,94,0.02,,,0.08,VWS V14.00,2013-05-04 09:20:00,
2013-05-04 04:25:00,34.9,33.3,29.86,West,270,1.0,4.0,94,0.02,,,0.08,VWS V14.00,2013-05-04 09:25:00,
2013-05-04 04:30:00,35.0,33.5,29.86,West,270,2.0,5.0,94,0.02,,,0.08,VWS V14.00,2013-05-04 09:30:00,
2013-05-04 04:35:00,35.0,33.5,29.86,West,270,2.0,4.0,94,0.02,,,0.08,VWS V14.00,2013-05-04 09:35:00,
2013-05-04 04:40:00,35.0,33.5,29.86,WNW,292,1.0,5.0,94,0.02,,,0.08,VWS V14.00,2013-05-04 09:40:00,
2013-05-04 04:45:00,35.0,33.5,29.86,West,270,2.0,4.0,94,0.01,,,0.08,VWS V14.00,2013-05-04 09:45:00,
2013-05-04 04:50:00,35.0,33.5,29.86,West,270,1.0,3.0,94,0.01,,,0.08,VWS V14.00,2013-05-04 09:50:00,
2013-05-04 04:55:00,35.0,33.5,29.86,West,270,1.0,3.0,94,0.01,,,0.08,VWS V14.00,2013-05-04 09:55:00,
2013-05-04 05:00:00,35.1,33.5,29.86,West,270,1.0,3.0,94,0.01,,,0.08,VWS V14.00,2013-05-04 10:00:00,
2013-05-04 05:05:00,35.1,33.5,29.86,West,270,1.0,3.0,94,0.02,,,0.09,VWS V14.00,2013-05-04 10:05:00,
2013-05-04 05:10:00,35.1,33.5,29.86,West,270,1.0,3.0,94,0.02,,,0.09,VWS V14.00,2013-05-04 10:10:00,
2013-05-04 05:15:00,35.2,33.7,29.86,West,270,1.0,3.0,94,0.02,,,0.09,VWS V14.00,2013-05-04 10:15:00,
2013-05-04 05:20:00,35.2,33.7,29.86,West,270,1.0,3.0,94,0.01,,,0.09,VWS V14.00,2013-05-04 10:20:00,
2013-05-04 05:25:00,35.2,33.7,29.86,West,270,1.0,3.0,94,0.01,,,0.09,VWS V14.00,2013-05-04 10:25:00,
2013-05-04 05:30:00,35.2,33.7,29.86,West,270,0.0,3.0,94,0.01,,,0.09,VWS V14.00,2013-05-04 10:30:00,
2013-05-04 05:35:00,35.3,33.8,29.86,West,270,0.0,3.0,94,0.01,,,0.09,VWS V14.00,2013-05-04 10:35:00,
2013-05-04 05:40:00,35.3,33.8,29.86,West,270,0.0,3.0,94,0.01,,,0.09,VWS V14.00,2013-05-04 10:40:00,
2013-05-04 05:45:00,35.3,33.8,29.86,West,270,1.0,3.0,94,0.01,,,0.09,VWS V14.00,2013-05-04 10:45:00,
2013-05-04 05:50:00,35.3,33.8,29.86,West,270,0.0,0.0,94,0.01,,,0.09,VWS V14.00,2013-05-04 10:50:00,
2013-05-04 05:55:00,35.4,33.8,29.86,West,270,0.0,0.0,94,0.01,,,0.09,VWS V14.00,2013-05-04 10:55:00,
2013-05-04 06:00:00,35.4,33.8,29.86,West,270,0.0,2.0,94,0.01,,,0.09,VWS V14.00,2013-05-04 11:00:00,
2013-05-04 06:05:00,35.5,34.0,29.87,West,270,0.0,0.0,94,0.01,,,0.09,VWS V14.00,2013-05-04 11:05:00,
2013-05-04 06:10:00,35.5,34.0,29.87,West,270,1.0,3.0,94,0.01,,,0.10,VWS V14.00,2013-05-04 11:10:00,
2013-05-04 06:15:00,35.5,34.0,29.87,West,270,0.0,0.0,94,0.01,,,0.10,VWS V14.00,2013-05-04 11:15:00,
2013-05-04 06:20:00,35.5,34.0,29.87,West,270,0.0,0.0,94,0.01,,,0.10,VWS V14.00,2013-05-04 11:20:00,
2013-05-04 06:25:00,35.6,34.0,29.87,West,270,0.0,0.0,94,0.01,,,0.10,VWS V14.00,2013-05-04 11:25:00,
2013-05-04 06:30:00,35.6,34.0,29.87,West,270,0.0,3.0,94,0.01,,,0.10,VWS V14.00,2013-05-04 11:30:00,
2013-05-04 06:35:00,35.7,34.2,29.87,West,270,0.0,3.0,94,0.01,,,0.10,VWS V14.00,2013-05-04 11:35:00,
2013-05-04 06:40:00,35.8,34.2,29.87,West,270,0.0,3.0,94,0.01,,,0.10,VWS V14.00,2013-05-04 11:40:00,
2013-05-04 06:45:00,35.9,34.6,29.87,West,270,0.0,3.0,95,0.01,,,0.10,VWS V14.00,2013-05-04 11:45:00,
2013-05-04 06:50:00,36.0,34.7,29.87,West,270,1.0,3.0,95,0.01,,,0.10,VWS V14.00,2013-05-04 11:50:00,
2013-05-04 06:55:00,36.1,34.5,29.87,West,270,1.0,3.0,94,0.01,,,0.10,VWS V14.00,2013-05-04 11:55:00,
2013-05-04 07:00:00,36.2,34.6,29.87,WNW,292,1.0,4.0,94,0.02,,,0.11,VWS V14.00,2013-05-04 12:00:00,
2013-05-04 07:05:00,36.3,34.7,29.88,WNW,292,1.0,5.0,94,0.02,,,0.11,VWS V14.00,2013-05-04 12:05:00,
2013-05-04 07:10:00,36.3,34.7,29.88,NNW,343,0.0,1.0,94,0.02,,,0.11,VWS V14.00,2013-05-04 12:10:00,
2013-05-04 07:11:00,36.3,34.7,29.88,WNW,292,1.0,5.0,94,0.02,,,0.11,VWS V14.00,2013-05-04 12:11:00,
2013-05-04 07:15:00,36.3,34.7,29.88,NNW,343,3.0,5.0,94,0.01,,,0.11,VWS V14.00,2013-05-04 12:15:00,
2013-05-04 07:16:00,36.4,34.8,29.88,NNW,338,2.0,3.0,94,0.01,,,0.11,VWS V14.00,2013-05-04 12:16:00,
2013-05-04 07:20:00,36.4,35.1,29.88,NNW,338,0.0,3.0,95,0.01,,,0.11,VWS V14.00,2013-05-04 12:20:00,
2013-05-04 07:21:00,36.4,35.1,29.88,NNW,338,2.0,2.0,95,0.01,,,0.11,VWS V14.00,2013-05-04 12:21:00,
2013-05-04 07:25:00,36.4,35.1,29.88,North,1,1.0,6.0,95,0.01,,,0.11,VWS V14.00,2013-05-04 12:25:00,
2013-05-04 07:26:00,36.4,35.1,29.88,North,1,1.0,1.0,95,0.01,,,0.11,VWS V14.00,2013-05-04 12:26:00,
2013-05-04 07:30:00,36.5,35.2,29.88,NNE,22,2.0,6.0,95,0.00,,,0.00,VWS V14.00,2013-05-04 12:30:00,
2013-05-04 07:35:00,36.6,35.3,29.88,NNE,22,2.0,5.0,95,0.00,,,0.00,VWS V14.00,2013-05-04 12:35:00,
2013-05-04 07:40:00,36.7,35.4,29.88,NNE,22,2.0,7.0,95,0.00,,,0.00,VWS V14.00,2013-05-04 12:40:00,
2013-05-04 07:45:00,36.8,35.5,29.88,North,0,3.0,6.0,95,0.00,,,0.01,VWS V14.00,2013-05-04 12:45:00,
2013-05-04 07:50:00,36.9,35.6,29.89,North,0,3.0,9.0,95,0.00,,,0.01,VWS V14.00,2013-05-04 12:50:00,
2013-05-04 07:55:00,37.0,35.7,29.88,North,0,3.0,7.0,95,0.00,,,0.01,VWS V14.00,2013-05-04 12:55:00,
2013-05-04 08:00:00,37.1,35.8,29.89,NNE,22,3.0,7.0,95,0.00,,,0.01,VWS V14.00,2013-05-04 13:00:00,
2013-05-04 08:05:00,37.3,36.0,29.89,NNE,22,3.0,7.0,95,0.00,,,0.01,VWS V14.00,2013-05-04 13:05:00,
2013-05-04 08:10:00,37.3,36.0,29.89,NNE,22,4.0,11.0,95,0.00,,,0.01,VWS V14.00,2013-05-04 13:10:00,
2013-05-04 08:15:00,37.3,36.0,29.89,North,0,3.0,7.0,95,0.00,,,0.02,VWS V14.00,2013-05-04 13:15:00,
2013-05-04 08:20:00,37.4,36.1,29.89,NNE,22,2.0,6.0,95,0.00,,,0.02,VWS V14.00,2013-05-04 13:20:00,
2013-05-04 08:25:00,37.5,36.2,29.89,NNE,22,1.0,6.0,95,0.00,,,0.02,VWS V14.00,2013-05-04 13:25:00,
2013-05-04 08:30:00,37.6,36.3,29.89,NE,45,4.0,8.0,95,0.00,,,0.02,VWS V14.00,2013-05-04 13:30:00,
2013-05-04 08:35:00,37.7,36.4,29.90,NNE,22,3.0,8.0,95,0.02,,,0.02,VWS V14.00,2013-05-04 13:35:00,
2013-05-04 08:40:00,37.8,36.5,29.90,NE,45,4.0,8.0,95,0.03,,,0.03,VWS V14.00,2013-05-04 13:40:00,
2013-05-04 08:45:00,37.8,36.5,29.90,NNE,22,3.0,7.0,95,0.03,,,0.03,VWS V14.00,2013-05-04 13:45:00,
2013-05-04 08:50:00,37.7,36.4,29.90,NE,45,5.0,9.0,95,0.02,,,0.03,VWS V14.00,2013-05-04 13:50:00,
2013-05-04 08:55:00,37.7,36.4,29.91,NE,45,4.0,9.0,95,0.02,,,0.03,VWS V14.00,2013-05-04 13:55:00,
2013-05-04 09:00:00,37.6,36.0,29.90,NE,45,4.0,8.0,94,0.02,,,0.03,VWS V14.00,2013-05-04 14:00:00,
2013-05-04 09:05:00,37.8,36.2,29.91,NNE,22,3.0,6.0,94,0.03,,,0.04,VWS V14.00,2013-05-04 14:05:00,
2013-05-04 09:10:00,38.0,36.4,29.91,ENE,68,3.0,7.0,94,0.03,,,0.04,VWS V14.00,2013-05-04 14:10:00,
2013-05-04 09:15:00,38.1,36.5,29.92,ENE,68,4.0,8.0,94,0.03,,,0.04,VWS V14.00,2013-05-04 14:15:00,
2013-05-04 09:20:00,38.0,36.4,29.92,ENE,68,4.0,9.0,94,0.02,,,0.04,VWS V14.00,2013-05-04 14:20:00,
2013-05-04 09:25:00,37.9,36.3,29.93,ENE,68,4.0,8.0,94,0.02,,,0.04,VWS V14.00,2013-05-04 14:25:00,
2013-05-04 09:30:00,38.1,36.5,29.92,ENE,68,1.0,5.0,94,0.02,,,0.04,VWS V14.00,2013-05-04 14:30:00,
2013-05-04 09:35:00,38.3,36.7,29.93,ENE,68,4.0,7.0,94,0.03,,,0.05,VWS V14.00,2013-05-04 14:35:00,
2013-05-04 09:40:00,38.5,36.9,29.93,East,90,4.0,8.0,94,0.03,,,0.05,VWS V14.00,2013-05-04 14:40:00,
2013-05-04 09:45:00,38.7,37.1,29.93,ENE,68,3.0,7.0,94,0.02,,,0.05,VWS V14.00,2013-05-04 14:45:00,
2013-05-04 09:50:00,38.8,37.2,29.93,ESE,112,4.0,7.0,94,0.02,,,0.05,VWS V14.00,2013-05-04 14:50:00,
2013-05-04 09:55:00,38.9,37.3,29.93,East,90,4.0,9.0,94,0.02,,,0.05,VWS V14.00,2013-05-04 14:55:00,
2013-05-04 10:00:00,39.3,37.7,29.93,ENE,68,3.0,7.0,94,0.02,,,0.05,VWS V14.00,2013-05-04 15:00:00,
2013-05-04 10:05:00,39.6,38.0,29.93,ENE,68,3.0,7.0,94,0.03,,,0.06,VWS V14.00,2013-05-04 15:05:00,
2013-05-04 10:10:00,39.6,37.5,29.93,NE,45,2.0,8.0,92,0.02,,,0.06,VWS V14.00,2013-05-04 15:10:00,
2013-05-04 10:15:00,39.9,38.0,29.93,NNE,22,1.0,6.0,93,0.02,,,0.06,VWS V14.00,2013-05-04 15:15:00,
2013-05-04 10:20:00,39.9,37.8,29.93,ENE,68,3.0,7.0,92,0.02,,,0.06,VWS V14.00,2013-05-04 15:20:00,
2013-05-04 10:25:00,39.8,37.4,29.93,ENE,68,1.0,6.0,91,0.02,,,0.06,VWS V14.00,2013-05-04 15:25:00,
2013-05-04 10:30:00,40.0,37.3,29.93,ENE,68,4.0,10.0,90,0.03,,,0.07,VWS V14.00,2013-05-04 15:30:00,
2013-05-04 10:35:00,40.4,38.0,29.94,ENE,68,2.0,8.0,91,0.03,,,0.07,VWS V14.00,2013-05-04 15:35:00,
2013-05-04 10:40:00,40.8,38.1,29.93,NE,45,2.0,9.0,90,0.02,,,0.07,VWS V14.00,2013-05-04 15:40:00,
2013-05-04 10:45:00,40.7,37.1,29.94,East,90,2.0,8.0,87,0.02,,,0.07,VWS V14.00,2013-05-04 15:45:00,
2013-05-04 10:50:00,40.6,37.3,29.94,East,90,3.0,6.0,88,0.02,,,0.07,VWS V14.00,2013-05-04 15:50:00,
2013-05-04 10:55:00,40.6,37.3,29.94,East,90,1.0,4.0,88,0.02,,,0.07,VWS V14.00,2013-05-04 15:55:00,
2013-05-04 11:00:00,40.6,37.0,29.94,ENE,68,2.0,5.0,87,0.03,,,0.08,VWS V14.00,2013-05-04 16:00:00,
2013-05-04 11:05:00,40.9,37.3,29.94,East,90,2.0,7.0,87,0.03,,,0.08,VWS V14.00,2013-05-04 16:05:00,
2013-05-04 11:10:00,41.2,37.6,29.95,East,90,4.0,9.0,87,0.02,,,0.08,VWS V14.00,2013-05-04 16:10:00,
2013-05-04 11:15:00,41.4,37.8,29.95,NE,45,4.0,10.0,87,0.02,,,0.08,VWS V14.00,2013-05-04 16:15:00,
2013-05-04 11:20:00,41.5,37.9,29.95,NE,45,2.0,8.0,87,0.02,,,0.08,VWS V14.00,2013-05-04 16:20:00,
2013-05-04 11:25:00,41.7,38.1,29.95,ENE,68,3.0,8.0,87,0.02,,,0.08,VWS V14.00,2013-05-04 16:25:00,
2013-05-04 11:30:00,41.9,38.3,29.95,ENE,68,2.0,6.0,87,0.02,,,0.08,VWS V14.00,2013-05-04 16:30:00,
2013-05-04 11:35:00,41.7,37.8,29.95,ENE,68,5.0,8.0,86,0.01,,,0.08,VWS V14.00,2013-05-04 16:35:00,
2013-05-04 11:40:00,41.5,37.0,29.95,ENE,68,4.0,7.0,84,0.01,,,0.08,VWS V14.00,2013-05-04 16:40:00,
2013-05-04 11:45:00,41.4,37.8,29.95,East,90,2.0,7.0,87,0.01,,,0.08,VWS V14.00,2013-05-04 16:45:00,
2013-05-04 11:50:00,41.4,37.5,29.95,NE,45,3.0,7.0,86,0.01,,,0.08,VWS V14.00,2013-05-04 16:50:00,
2013-05-04 11:55:00,41.3,37.7,29.95,ENE,68,2.0,7.0,87,0.01,,,0.08,VWS V14.00,2013-05-04 16:55:00,
2013-05-04 12:00:00,41.3,37.7,29.95,ESE,112,2.0,8.0,87,0.01,,,0.08,VWS V14.00,2013-05-04 17:00:00,
2013-05-04 12:05:00,41.7,38.1,29.95,East,90,3.0,7.0,87,0.00,,,0.08,VWS V14.00,2013-05-04 17:05:00,
2013-05-04 12:10:00,41.8,37.9,29.95,ENE,68,3.0,8.0,86,0.00,,,0.08,VWS V14.00,2013-05-04 17:10:00,
2013-05-04 12:15:00,41.8,37.9,29.96,ENE,68,5.0,10.0,86,0.00,,,0.08,VWS V14.00,2013-05-04 17:15:00,
2013-05-04 12:20:00,42.0,38.1,29.96,ENE,68,7.0,11.0,86,0.00,,,0.08,VWS V14.00,2013-05-04 17:20:00,
2013-05-04 12:25:00,42.1,38.8,29.95,East,90,6.0,9.0,88,0.00,,,0.08,VWS V14.00,2013-05-04 17:25:00,
2013-05-04 12:30:00,42.4,39.1,29.95,ENE,68,4.0,10.0,88,0.00,,,0.08,VWS V14.00,2013-05-04 17:30:00,
2013-05-04 12:35:00,42.7,38.5,29.95,ENE,68,2.0,8.0,85,0.00,,,0.08,VWS V14.00,2013-05-04 17:35:00,
2013-05-04 12:40:00,42.8,38.6,29.96,ENE,68,3.0,8.0,85,0.00,,,0.08,VWS V14.00,2013-05-04 17:40:00,
2013-05-04 12:45:00,42.5,38.0,29.96,ENE,68,4.0,8.0,84,0.00,,,0.08,VWS V14.00,2013-05-04 17:45:00,
2013-05-04 12:50:00,42.7,38.8,29.96,East,90,2.0,5.0,86,0.00,,,0.08,VWS V14.00,2013-05-04 17:50:00,
2013-05-04 12:55:00,42.9,38.4,29.96,NE,45,2.0,5.0,84,0.00,,,0.08,VWS V14.00,2013-05-04 17:55:00,
2013-05-04 13:00:00,43.1,38.3,29.96,NE,45,2.0,7.0,83,0.00,,,0.08,VWS V14.00,2013-05-04 18:00:00,
2013-05-04 13:05:00,43.1,38.3,29.96,ENE,68,1.0,4.0,83,0.00,,,0.08,VWS V14.00,2013-05-04 18:05:00,
2013-05-04 13:10:00,43.1,38.3,29.96,NNE,22,1.0,3.0,83,0.00,,,0.08,VWS V14.00,2013-05-04 18:10:00,
2013-05-04 13:15:00,43.1,38.0,29.97,NNE,22,3.0,9.0,82,0.00,,,0.08,VWS V14.00,2013-05-04 18:15:00,
2013-05-04 13:20:00,43.3,38.2,29.97,NE,45,5.0,10.0,82,0.00,,,0.08,VWS V14.00,2013-05-04 18:20:00,
2013-05-04 13:25:00,43.6,38.5,29.96,North,0,4.0,7.0,82,0.00,,,0.08,VWS V14.00,2013-05-04 18:25:00,
2013-05-04 13:30:00,44.2,38.8,29.97,ENE,68,2.0,8.0,81,0.00,,,0.08,VWS V14.00,2013-05-04 18:30:00,
2013-05-04 13:35:00,44.3,38.5,29.97,ENE,68,3.0,8.0,80,0.00,,,0.08,VWS V14.00,2013-05-04 18:35:00,
2013-05-04 13:40:00,44.5,38.7,29.97,NE,45,4.0,9.0,80,0.00,,,0.08,VWS V14.00,2013-05-04 18:40:00,
2013-05-04 13:45:00,44.5,38.4,29.97,NE,45,3.0,7.0,79,0.00,,,0.08,VWS V14.00,2013-05-04 18:45:00,
2013-05-04 13:50:00,44.8,38.7,29.97,NNE,22,4.0,9.0,79,0.00,,,0.08,VWS V14.00,2013-05-04 18:50:00,
2013-05-04 13:55:00,45.0,38.9,29.97,ENE,68,5.0,11.0,79,0.00,,,0.08,VWS V14.00,2013-05-04 18:55:00,
2013-05-04 14:00:00,45.0,38.9,29.97,NE,45,5.0,10.0,79,0.00,,,0.08,VWS V14.00,2013-05-04 19:00:00,
2013-05-04 14:05:00,45.1,39.3,29.97,NNE,22,5.0,10.0,80,0.00,,,0.08,VWS V14.00,2013-05-04 19:05:00,
2013-05-04 14:10:00,45.4,39.6,29.98,NE,45,4.0,9.0,80,0.00,,,0.08,VWS V14.00,2013-05-04 19:10:00,
2013-05-04 14:15:00,45.7,39.6,29.97,ENE,68,6.0,10.0,79,0.00,,,0.08,VWS V14.00,2013-05-04 19:15:00,
2013-05-04 14:20:00,46.4,39.9,29.98,NNE,22,6.0,13.0,78,0.00,,,0.08,VWS V14.00,2013-05-04 19:20:00,
2013-05-04 14:25:00,46.9,39.7,29.97,NE,45,5.0,12.0,76,0.00,,,0.08,VWS V14.00,2013-05-04 19:25:00,
2013-05-04 14:30:00,47.2,39.3,29.97,NNE,22,6.0,12.0,74,0.00,,,0.08,VWS V14.00,2013-05-04 19:30:00,
2013-05-04 14:35:00,47.1,38.9,29.98,NNE,22,5.0,11.0,73,0.00,,,0.08,VWS V14.00,2013-05-04 19:35:00,
2013-05-04 14:40:00,46.4,39.3,29.97,NNE,22,4.0,11.0,76,0.00,,,0.08,VWS V14.00,2013-05-04 19:40:00,
2013-05-04 14:45:00,46.0,38.9,29.98,NE,45,3.0,8.0,76,0.00,,,0.08,VWS V14.00,2013-05-04 19:45:00,
2013-05-04 14:50:00,45.6,38.5,29.98,NNE,22,3.0,7.0,76,0.00,,,0.08,VWS V14.00,2013-05-04 19:50:00,
2013-05-04 14:55:00,45.7,38.6,29.98,ENE,68,3.0,8.0,76,0.00,,,0.08,VWS V14.00,2013-05-04 19:55:00,
2013-05-04 15:00:00,46.1,39.0,29.98,East,90,3.0,8.0,76,0.00,,,0.08,VWS V14.00,2013-05-04 20:00:00,
2013-05-04 15:05:00,46.7,40.2,29.98,ENE,68,1.0,6.0,78,0.00,,,0.08,VWS V14.00,2013-05-04 20:05:00,
2013-05-04 15:10:00,47.2,40.0,29.98,NE,45,4.0,10.0,76,0.00,,,0.08,VWS V14.00,2013-05-04 20:10:00,
2013-05-04 15:15:00,47.5,40.0,29.98,NNE,22,4.0,12.0,75,0.00,,,0.08,VWS V14.00,2013-05-04 20:15:00,
2013-05-04 15:20:00,47.6,39.4,29.98,ENE,68,5.0,10.0,73,0.00,,,0.08,VWS V14.00,2013-05-04 20:20:00,
2013-05-04 15:25:00,47.2,39.0,29.99,ENE,68,5.0,10.0,73,0.00,,,0.08,VWS V14.00,2013-05-04 20:25:00,
2013-05-04 15:30:00,46.9,38.7,29.99,NE,45,3.0,8.0,73,0.00,,,0.08,VWS V14.00,2013-05-04 20:30:00,
2013-05-04 15:35:00,46.7,39.2,29.99,ENE,68,3.0,6.0,75,0.00,,,0.08,VWS V14.00,2013-05-04 20:35:00,
2013-05-04 15:40:00,46.6,38.8,29.99,ENE,68,4.0,10.0,74,0.00,,,0.08,VWS V14.00,2013-05-04 20:40:00,
2013-05-04 15:45:00,46.4,38.6,29.99,NE,45,4.0,7.0,74,0.00,,,0.08,VWS V14.00,2013-05-04 20:45:00,
2013-05-04 15:50:00,46.1,38.6,30.00,NE,45,4.0,9.0,75,0.00,,,0.08,VWS V14.00,2013-05-04 20:50:00,
2013-05-04 15:55:00,46.0,38.9,30.00,ENE,68,2.0,7.0,76,0.00,,,0.08,VWS V14.00,2013-05-04 20:55:00,
2013-05-04 16:00:00,46.0,38.9,29.99,NE,45,2.0,7.0,76,0.00,,,0.08,VWS V14.00,2013-05-04 21:00:00,
2013-05-04 16:05:00,46.1,39.0,30.00,NE,45,2.0,7.0,76,0.00,,,0.08,VWS V14.00,2013-05-04 21:05:00,
2013-05-04 16:10:00,46.1,38.6,30.00,NE,45,2.0,7.0,75,0.00,,,0.08,VWS V14.00,2013-05-04 21:10:00,
2013-05-04 16:15:00,46.0,38.5,30.00,North,0,3.0,6.0,75,0.00,,,0.08,VWS V14.00,2013-05-04 21:15:00,
2013-05-04 16:20:00,46.2,39.4,30.00,North,0,3.0,7.0,77,0.00,,,0.08,VWS V14.00,2013-05-04 21:20:00,
2013-05-04 16:25:00,46.2,39.1,30.00,NNE,22,1.0,6.0,76,0.00,,,0.08,VWS V14.00,2013-05-04 21:25:00,
2013-05-04 16:30:00,46.2,38.7,30.00,North,0,2.0,8.0,75,0.00,,,0.08,VWS V14.00,2013-05-04 21:30:00,
2013-05-04 16:35:00,46.2,39.4,30.00,NNE,22,3.0,7.0,77,0.00,,,0.08,VWS V14.00,2013-05-04 21:35:00,
2013-05-04 16:40:00,46.0,38.5,30.00,NE,45,4.0,8.0,75,0.00,,,0.08,VWS V14.00,2013-05-04 21:40:00,
2013-05-04 16:45:00,45.7,38.2,30.01,ENE,68,4.0,9.0,75,0.00,,,0.08,VWS V14.00,2013-05-04 21:45:00,
2013-05-04 16:50:00,45.6,38.5,30.00,NNE,22,2.0,6.0,76,0.00,,,0.08,VWS V14.00,2013-05-04 21:50:00,
2013-05-04 16:55:00,45.7,39.2,30.00,NE,45,2.0,7.0,78,0.00,,,0.08,VWS V14.00,2013-05-04 21:55:00,
2013-05-04 17:00:00,45.7,38.9,30.01,ENE,68,3.0,8.0,77,0.00,,,0.08,VWS V14.00,2013-05-04 22:00:00,
2013-05-04 17:05:00,45.5,39.0,30.01,ENE,68,3.0,8.0,78,0.00,,,0.08,VWS V14.00,2013-05-04 22:05:00,
2013-05-04 17:10:00,45.4,38.6,30.01,NE,45,2.0,7.0,77,0.00,,,0.08,VWS V14.00,2013-05-04 22:10:00,
2013-05-04 17:15:00,45.4,38.6,30.01,NE,45,4.0,9.0,77,0.00,,,0.08,VWS V14.00,2013-05-04 22:15:00,
2013-05-04 17:20:00,45.3,39.2,30.01,NE,45,2.0,7.0,79,0.00,,,0.08,VWS V14.00,2013-05-04 22:20:00,
2013-05-04 17:25:00,45.5,39.7,30.01,ENE,68,0.0,2.0,80,0.00,,,0.08,VWS V14.00,2013-05-04 22:25:00,
2013-05-04 17:30:00,45.7,38.9,30.01,ENE,68,3.0,5.0,77,0.00,,,0.08,VWS V14.00,2013-05-04 22:30:00,
2013-05-04 17:35:00,45.8,39.0,30.02,ENE,68,5.0,8.0,77,0.00,,,0.08,VWS V14.00,2013-05-04 22:35:00,
2013-05-04 17:40:00,45.9,39.4,30.02,NE,45,2.0,5.0,78,0.00,,,0.08,VWS V14.00,2013-05-04 22:40:00,
2013-05-04 17:45:00,46.0,39.2,30.01,ENE,68,1.0,3.0,77,0.00,,,0.08,VWS V14.00,2013-05-04 22:45:00,
2013-05-04 17:50:00,46.0,39.5,30.00,NE,45,2.0,5.0,78,0.00,,,0.08,VWS V14.00,2013-05-04 22:50:00,
2013-05-04 18:01:00,46.3,39.2,30.01,NW,315,2.0,5.0,76,0.00,,,0.08,VWS V14.00,2013-05-04 23:01:00,
2013-05-04 18:06:00,46.6,39.5,30.01,North,350,2.0,4.0,76,0.11,,,0.19,VWS V14.00,2013-05-04 23:06:00,
2013-05-04 18:11:00,46.7,40.2,30.01,NW,314,3.0,3.0,78,0.11,,,0.19,VWS V14.00,2013-05-04 23:11:00,
2013-05-04 18:16:00,47.0,40.2,30.01,NNW,328,4.0,4.0,77,0.11,,,0.19,VWS V14.00,2013-05-04 23:16:00,
2013-05-04 18:21:00,47.3,40.5,30.01,WNW,302,3.0,3.0,77,0.11,,,0.19,VWS V14.00,2013-05-04 23:21:00,
2013-05-04 18:26:00,47.6,40.4,30.01,NW,321,2.0,2.0,76,0.11,,,0.19,VWS V14.00,2013-05-04 23:26:00,
2013-05-04 18:31:00,47.6,39.7,30.02,North,10,0.0,5.0,74,0.11,,,0.19,VWS V14.00,2013-05-04 23:31:00,
2013-05-04 18:36:00,47.4,39.9,30.02,North,357,5.0,6.0,75,0.11,,,0.19,VWS V14.00,2013-05-04 23:36:00,
2013-05-04 18:41:00,47.2,39.3,30.02,NNW,333,4.0,5.0,74,0.11,,,0.19,VWS V14.00,2013-05-04 23:41:00,
2013-05-04 18:46:00,47.0,39.8,30.02,North,349,1.0,3.0,76,0.11,,,0.19,VWS V14.00,2013-05-04 23:46:00,
2013-05-04 18:51:00,46.9,40.1,30.02,North,358,0.0,0.0,77,0.11,,,0.19,VWS V14.00,2013-05-04 23:51:00,
2013-05-04 18:56:00,46.9,39.7,30.02,North,4,3.0,3.0,76,0.11,,,0.19,VWS V14.00,2013-05-04 23:56:00,
2013-05-04 19:01:00,46.8,39.7,30.01,North,4,0.0,0.0,76,0.00,,,0.19,VWS V14.00,2013-05-05 00:01:00,
2013-05-04 19:06:00,46.7,39.5,30.01,North,360,2.0,3.0,76,0.00,,,0.19,VWS V14.00,2013-05-05 00:06:00,
2013-05-04 19:11:00,46.5,39.7,30.01,North,357,6.0,6.0,77,0.00,,,0.19,VWS V14.00,2013-05-05 00:11:00,
2013-05-04 19:16:00,46.4,39.6,30.01,North,1,0.0,0.0,77,0.00,,,0.19,VWS V14.00,2013-05-05 00:16:00,
2013-05-04 19:21:00,46.3,39.8,30.02,North,1,0.0,0.0,78,0.00,,,0.19,VWS V14.00,2013-05-05 00:21:00,
2013-05-04 19:26:00,46.2,40.1,30.02,North,359,2.0,3.0,79,0.00,,,0.19,VWS V14.00,2013-05-05 00:26:00,
2013-05-04 19:31:00,46.1,40.3,30.02,North,359,0.0,0.0,80,0.00,,,0.19,VWS V14.00,2013-05-05 00:31:00,
2013-05-04 19:36:00,46.0,40.2,30.02,North,359,0.0,1.0,80,0.00,,,0.19,VWS V14.00,2013-05-05 00:36:00,
2013-05-04 19:41:00,45.8,40.0,30.02,North,359,0.0,1.0,80,0.00,,,0.19,VWS V14.00,2013-05-05 00:41:00,
2013-05-04 19:46:00,45.7,40.2,30.02,North,356,0.0,2.0,81,0.00,,,0.19,VWS V14.00,2013-05-05 00:46:00,
2013-05-04 19:51:00,45.5,40.3,30.02,North,352,3.0,3.0,82,0.00,,,0.19,VWS V14.00,2013-05-05 00:51:00,
2013-05-04 19:56:00,45.4,40.2,30.02,North,349,3.0,3.0,82,0.00,,,0.19,VWS V14.00,2013-05-05 00:56:00,
2013-05-04 20:01:00,45.2,40.3,30.02,NW,314,3.0,3.0,83,0.00,,,0.19,VWS V14.00,2013-05-05 01:01:00,
2013-05-04 20:06:00,45.1,39.9,30.02,NW,314,0.0,3.0,82,0.00,,,0.19,VWS V14.00,2013-05-05 01:06:00,
2013-05-04 20:11:00,45.0,39.8,30.02,NW,314,0.0,1.0,82,0.00,,,0.19,VWS V14.00,2013-05-05 01:11:00,
2013-05-04 20:15:00,44.8,40.0,30.02,NW,314,0.0,2.0,83,0.00,,,0.19,VWS V14.00,2013-05-05 01:15:00,
2013-05-04 20:20:00,44.7,40.2,30.02,NW,314,1.0,2.0,84,0.00,,,0.19,VWS V14.00,2013-05-05 01:20:00,
2013-05-04 20:25:00,44.6,40.1,30.02,NW,311,0.0,0.0,84,0.00,,,0.19,VWS V14.00,2013-05-05 01:25:00,
2013-05-04 20:30:00,44.5,40.0,30.02,NW,313,0.0,3.0,84,0.00,,,0.19,VWS V14.00,2013-05-05 01:30:00,
2013-05-04 20:35:00,44.4,40.2,30.03,NW,308,0.0,0.0,85,0.00,,,0.19,VWS V14.00,2013-05-05 01:35:00,
2013-05-04 20:40:00,44.3,40.1,30.03,NW,310,0.0,1.0,85,0.00,,,0.19,VWS V14.00,2013-05-05 01:40:00,
2013-05-04 20:45:00,44.3,40.1,30.03,NW,305,2.0,2.0,85,0.00,,,0.19,VWS V14.00,2013-05-05 01:45:00,
2013-05-04 20:50:00,44.3,40.1,30.03,NW,305,2.0,3.0,85,0.00,,,0.19,VWS V14.00,2013-05-05 01:50:00,
2013-05-04 20:55:00,44.3,40.1,30.03,NW,306,0.0,2.0,85,0.00,,,0.19,VWS V14.00,2013-05-05 01:55:00,
2013-05-04 21:00:00,44.3,40.1,30.04,NW,306,0.0,1.0,85,0.00,,,0.19,VWS V14.00,2013-05-05 02:00:00,
2013-05-04 21:05:00,44.3,40.1,30.04,NW,306,0.0,0.0,85,0.00,,,0.19,VWS V14.00,2013-05-05 02:05:00,
2013-05-04 21:10:00,44.3,40.4,30.04,NW,306,0.0,0.0,86,0.00,,,0.19,VWS V14.00,2013-05-05 02:10:00,
2013-05-04 21:15:00,44.3,40.4,30.04,NW,306,0.0,0.0,86,0.00,,,0.19,VWS V14.00,2013-05-05 02:15:00,
2013-05-04 21:20:00,44.3,40.4,30.03,NW,306,0.0,0.0,86,0.00,,,0.19,VWS V14.00,2013-05-05 02:20:00,
2013-05-04 21:25:00,44.3,40.4,30.03,NW,306,0.0,0.0,86,0.00,,,0.19,VWS V14.00,2013-05-05 02:25:00,
2013-05-04 21:30:00,44.3,40.7,30.03,NW,306,0.0,0.0,87,0.00,,,0.19,VWS V14.00,2013-05-05 02:30:00,
2013-05-04 21:35:00,44.3,40.7,30.04,NW,306,0.0,0.0,87,0.00,,,0.19,VWS V14.00,2013-05-05 02:35:00,
2013-05-04 21:40:00,44.4,40.8,30.04,NW,306,0.0,0.0,87,0.00,,,0.19,VWS V14.00,2013-05-05 02:40:00,
2013-05-04 21:45:00,44.4,40.8,30.04,NW,306,0.0,0.0,87,0.00,,,0.19,VWS V14.00,2013-05-05 02:45:00,
2013-05-04 21:50:00,44.3,40.7,30.04,NW,306,0.0,0.0,87,0.00,,,0.19,VWS V14.00,2013-05-05 02:50:00,
2013-05-04 21:55:00,44.3,40.7,30.04,NW,306,0.0,0.0,87,0.00,,,0.19,VWS V14.00,2013-05-05 02:55:00,
2013-05-04 22:00:00,44.4,40.5,30.04,NW,306,0.0,0.0,86,0.00,,,0.19,VWS V14.00,2013-05-05 03:00:00,
2013-05-04 22:05:00,44.3,40.7,30.05,NW,306,0.0,0.0,87,0.00,,,0.19,VWS V14.00,2013-05-05 03:05:00,
2013-05-04 22:10:00,44.4,40.8,30.05,NW,306,0.0,0.0,87,0.00,,,0.19,VWS V14.00,2013-05-05 03:10:00,
2013-05-04 22:15:00,44.3,40.4,30.04,NW,306,0.0,0.0,86,0.00,,,0.19,VWS V14.00,2013-05-05 03:15:00,
2013-05-04 22:20:00,44.4,40.8,30.05,North,0,0.0,0.0,87,0.00,,,0.19,VWS V14.00,2013-05-05 03:20:00,
2013-05-04 22:25:00,44.5,40.9,30.05,North,0,0.0,0.0,87,0.00,,,0.19,VWS V14.00,2013-05-05 03:25:00,
2013-05-04 22:30:00,44.5,40.6,30.05,North,0,0.0,0.0,86,0.00,,,0.19,VWS V14.00,2013-05-05 03:30:00,
2013-05-04 22:35:00,44.5,40.9,30.05,North,0,0.0,0.0,87,0.00,,,0.19,VWS V14.00,2013-05-05 03:35:00,
2013-05-04 22:40:00,44.5,40.9,30.05,North,0,0.0,0.0,87,0.00,,,0.19,VWS V14.00,2013-05-05 03:40:00,
2013-05-04 22:45:00,44.6,41.0,30.05,North,0,0.0,0.0,87,0.00,,,0.19,VWS V14.00,2013-05-05 03:45:00,
2013-05-04 22:50:00,44.6,41.0,30.05,North,0,0.0,0.0,87,0.00,,,0.19,VWS V14.00,2013-05-05 03:50:00,
2013-05-04 22:55:00,44.6,41.0,30.05,North,0,0.0,0.0,87,0.00,,,0.19,VWS V14.00,2013-05-05 03:55:00,
2013-05-04 23:00:00,44.6,41.0,30.05,North,0,0.0,0.0,87,0.00,,,0.19,VWS V14.00,2013-05-05 04:00:00,
2013-05-04 23:05:00,44.6,41.0,30.04,North,0,0.0,0.0,87,0.00,,,0.19,VWS V14.00,2013-05-05 04:05:00,
2013-05-04 23:10:00,44.6,41.0,30.04,North,0,0.0,0.0,87,0.00,,,0.19,VWS V14.00,2013-05-05 04:10:00,
2013-05-04 23:15:00,44.6,41.0,30.05,North,0,0.0,0.0,87,0.00,,,0.19,VWS V14.00,2013-05-05 04:15:00,
2013-05-04 23:20:00,44.6,41.0,30.05,North,0,0.0,0.0,87,0.00,,,0.19,VWS V14.00,2013-05-05 04:20:00,
2013-05-04 23:25:00,44.6,41.0,30.05,North,0,0.0,0.0,87,0.00,,,0.19,VWS V14.00,2013-05-05 04:25:00,
2013-05-04 23:30:00,44.6,41.0,30.05,North,0,0.0,0.0,87,0.00,,,0.19,VWS V14.00,2013-05-05 04:30:00,
2013-05-04 23:35:00,44.6,41.0,30.05,North,0,0.0,0.0,87,0.00,,,0.19,VWS V14.00,2013-05-05 04:35:00,
2013-05-04 23:40:00,44.6,41.0,30.05,North,0,0.0,0.0,87,0.00,,,0.19,VWS V14.00,2013-05-05 04:40:00,
2013-05-04 23:45:00,44.6,41.0,30.05,North,0,0.0,0.0,87,0.00,,,0.19,VWS V14.00,2013-05-05 04:45:00,
2013-05-04 23:50:00,44.6,41.0,30.06,North,0,0.0,0.0,87,0.00,,,0.19,VWS V14.00,2013-05-05 04:50:00,
2013-05-04 23:55:00,44.7,41.4,30.06,North,0,0.0,0.0,88,0.00,,,0.19,VWS V14.00,2013-05-05 04:55:00,